Beidou DW 48

operational
NORAD ID: 44542 Int'l Des: 2019-061 Owner: CNSA Country: CN Constellation: BeiDou
MEOCIRCULAR

Über Beidou DW 48

Beschreibung wird geladen...

Live-Position

3D-Globus wird geladen...

Nächste Überflüge

Höhenverlauf

Altitude vs Time

uPlot chart will show altitude changes over time

Zweizeiliger Elementsatz

1 44542U 19061A 25298.05619706 .00000027 00000-0 00000-0 0 9995
2 44542 54.4013 190.6596 0009221 15.2716 344.8415 1.86229469 41416
Epoch: 25. Okt. 2025 • Age: 41 hours

Aktueller Status

Höhe 21517.6 km
Geschwindigkeit 3.78 km/s
Subsatellitenpunkt 47.74°N, 68.14°W
Startdatum 22. Sept. 2019
Alter 6 years
Typ navigation

Technische Details

Klassifizierung Payload
Masse 1014.00 kg
Trockenmasse 850.00 kg
Gesamtmasse 1014.00 kg
Länge 2.20 m
Durchmesser 1.70 m
Spannweite 10.00 m
Form Box + 2 Pan
Hersteller CAST
Bus-Typ BD-3M/SAR
Phasenstatus In Orbit
Besitzer/Staat CNSA/CN

Große Konstellationen

Loading constellations...